Location: Unspecified
(0.0000°N, 0.0000°E)
Time: 17:38:07
(UTC+00:00)

Tiros 1 - All Passes

Search period start: 19 November 2017 00:00
Search period end: 29 November 2017 00:00
Orbit: 631 x 664 km, 48.4° (Epoch: 18 November)

Date Brightness Start Highest point End Pass type
(mag) Time Alt. Az. Time Alt. Az. Time Alt. Az.
19 Nov - 00:05:28 10° SSW 00:09:46 32° SE 00:14:03 10° ENE night (unlit)
19 Nov - 01:48:17 10° W 01:51:49 20° NW 01:55:21 10° N night (unlit)
19 Nov - 12:18:15 10° NNW 12:22:46 58° NE 12:27:18 10° SE daylight
19 Nov - 14:03:51 10° WSW 14:04:52 11° SW 14:05:52 10° SW daylight
20 Nov - 00:31:05 10° SW 00:35:53 75° NW 00:40:40 10° NE night (unlit)
20 Nov - 11:04:07 10° NNE 11:06:50 15° NE 11:09:33 10° E daylight
20 Nov - 12:44:34 10° WNW 12:48:52 39° SW 12:53:11 10° SSE daylight
20 Nov - 23:15:49 10° S 23:19:58 29° SE 23:24:06 10° ENE night (unlit)
21 Nov - 00:58:14 10° WSW 01:02:01 23° NW 01:05:46 10° N night (unlit)
21 Nov - 11:28:31 10° NNW 11:32:59 50° NE 11:37:27 10° SE daylight
21 Nov - 13:13:15 10° WSW 13:15:04 12° SW 13:16:52 10° SSW daylight
21 Nov - 23:41:16 10° SW 23:46:05 85° NW 23:50:53 10° NE night (unlit)
22 Nov - 10:14:43 10° NNE 10:17:03 14° NE 10:19:22 10° E daylight
22 Nov - 11:54:42 10° WNW 11:59:05 44° SW 12:03:30 10° SSE daylight
22 Nov - 22:26:11 10° S 22:30:10 26° SE 22:34:08 10° ENE night (unlit)
23 Nov - 00:08:15 10° WSW 00:12:13 25° NW 00:16:10 10° N night (unlit)
23 Nov - 10:38:49 10° NNW 10:43:13 44° NE 10:47:36 10° ESE daylight
23 Nov - 12:22:57 10° W 12:25:16 14° SW 12:27:35 10° SSW daylight
23 Nov - 22:51:29 10° SW 22:56:17 85° SE 23:01:06 10° NE night (unlit)
24 Nov - 09:25:26 10° NNE 09:27:15 12° NE 09:29:03 10° ENE daylight
24 Nov - 11:04:51 10° NW 11:09:19 50° SW 11:13:47 10° SSE daylight
24 Nov - 21:36:34 10° S 21:40:21 23° SE 21:44:09 10° ENE night (unlit)
24 Nov - 23:18:16 10° WSW 23:22:24 28° NW 23:26:32 10° N night (unlit)
25 Nov - 09:49:07 10° NNW 09:53:26 39° NE 09:57:44 10° ESE daylight
25 Nov - 11:32:45 10° W 11:35:28 15° SW 11:38:11 10° SSW daylight
25 Nov - 22:01:41 10° SW 22:06:29 76° SE 22:11:17 10° NE night (unlit)
26 Nov - 08:36:26 10° NE 08:37:27 11° NE 08:38:28 10° ENE daylight
26 Nov - 10:15:00 10° NW 10:19:31 57° SW 10:24:04 10° SSE daylight
26 Nov - 20:46:59 10° S 20:50:33 21° SE 20:54:06 10° E visible
26 Nov - 22:28:20 10° WSW 22:32:36 32° NW 22:36:52 10° NNE night (unlit)
27 Nov - 08:59:26 10° NNW 09:03:39 35° NE 09:07:51 10° ESE daylight
27 Nov - 10:42:38 10° W 10:45:40 17° SW 10:48:43 10° S daylight
27 Nov - 21:11:55 10° SSW 21:16:41 67° SE 21:21:27 10° NE visible
28 Nov - 09:25:10 10° NW 09:29:45 66° SW 09:34:20 10° SSE daylight
28 Nov - 19:57:26 10° S 20:00:44 18° SE 20:04:02 10° E visible
28 Nov - 21:38:24 10° WSW 21:42:47 36° NW 21:47:11 10° NNE night (unlit)
